Location: Caltech
(34.1382°N, 118.1253°W)
Time: 17:56:42
(UTC-08:00)

Saudisat 1A - Visible Passes

Search period start: 27 February 2015 00:00
Search period end: 09 March 2015 01:00
Orbit: 586 x 615 km, 64.6° (Epoch: 27 February)

Date Brightness Start Highest point End Pass type
(mag) Time Alt. Az. Time Alt. Az. Time Alt. Az.
27 Feb 8.6 05:27:43 10° NNW 05:32:09 62° ENE 05:36:34 10° SE visible
27 Feb 10.1 19:30:19 10° S 19:31:11 15° S 19:31:11 15° S visible
28 Feb 11.0 04:01:31 10° NNE 04:03:29 13° NE 04:05:40 10° ENE visible
28 Feb 8.0 05:39:05 10° NW 05:43:32 65° WSW 05:47:55 10° SSE visible
28 Feb 8.8 19:41:17 10° SSW 19:44:10 41° SSW 19:44:10 41° SSW visible
01 Mar 10.3 04:11:42 10° N 04:15:13 23° NE 04:18:47 10° ESE visible
01 Mar 8.8 05:50:49 10° NW 05:54:49 32° WSW 05:58:44 10° S visible
01 Mar 9.9 18:16:11 10° SE 18:17:51 12° ESE 18:19:46 10° E visible
01 Mar 8.7 19:52:46 10° SW 19:56:59 50° WNW 19:57:09 50° NW visible
02 Mar 9.2 04:23:42 17° N 04:26:46 41° NE 04:31:01 10° SE visible
02 Mar 9.1 18:25:33 10° SSE 18:29:03 25° ESE 18:32:40 10° ENE visible
02 Mar 10.0 20:04:47 10° WSW 20:08:31 27° NW 20:10:03 21° NNW visible
03 Mar 8.0 04:36:08 31° NNW 04:38:12 82° ENE 04:42:39 10° SSE visible
03 Mar 8.2 18:36:06 10° S 18:40:17 50° ESE 18:44:33 10° NE visible
03 Mar 10.8 20:17:32 10° W 20:20:10 15° NW 20:22:41 10° NNW visible
04 Mar 11.1 03:11:57 12° E 03:11:57 12° E 03:12:33 10° E visible
04 Mar 8.2 04:48:48 44° W 04:49:31 49° WSW 04:53:48 10° S visible
04 Mar 8.1 18:47:16 10° SSW 18:51:36 78° WNW 18:56:00 10° NNE visible
05 Mar 10.9 03:24:49 12° ESE 03:24:49 12° ESE 03:25:12 10° ESE visible
05 Mar 9.3 05:01:41 23° SW 05:01:41 23° SW 05:04:19 10° SSW visible
05 Mar 9.4 18:58:57 10° SW 19:03:01 39° NW 19:07:09 10° NNE visible
06 Mar 10.5 19:11:12 10° WSW 19:14:35 21° NW 19:17:55 10° N visible
07 Mar 11.0 19:24:28 10° WNW 19:26:18 12° NW 19:27:57 10° NNW visible
